Torna al catalogo

TITAN 3C TRANSTAGE R/B

AttivoMEO
NORAD 11560·ROCKET BODY·🇺🇸 United States

Lanciato Oct 1, 1979 da Cape Canaveral Space Force Station

Loading…

Prossimi Passaggi (prossime 24 ore)

TLE

AggiornatoSource: Space-Track

Epoca: Sep 14, 2026, 13:14 UTC

1 11560U 79086C   26257.55204328 -.00000036  00000-0  00000-0 0  9994
2 11560   5.9060  13.1267 1293432 127.5214 245.0206  0.99682009 27136

Traccia TITAN 3C TRANSTAGE R/B in tempo reale con AllMySat

Download on the App Store